Time,TemperatureF,DewpointF,PressureIn,WindDirection,WindDirectionDegrees,WindSpeedMPH,WindSpeedGustMPH,Humidity,HourlyPrecipIn,Conditions,Clouds,dailyrainin,SoftwareType,DateUTC
2013-02-15 00:02:00,57.5,27.8,30.09,East,86,0.0,1.0,32,0.00,,,0.00,Wunderground v.1.15,2013-02-15 08:02:00,
2013-02-15 00:08:00,57.5,27.8,30.09,East,98,0.0,4.0,32,0.00,,,0.00,Wunderground v.1.15,2013-02-15 08:08:00,
2013-02-15 00:13:00,57.4,27.7,30.09,East,86,0.0,2.0,32,0.00,,,0.00,Wunderground v.1.15,2013-02-15 08:13:00,
2013-02-15 00:19:00,57.3,27.7,30.09,ENE,64,0.0,3.0,32,0.00,,,0.00,Wunderground v.1.15,2013-02-15 08:19:00,
2013-02-15 00:24:00,57.0,27.4,30.09,East,101,7.0,7.0,32,0.00,,,0.00,Wunderground v.1.15,2013-02-15 08:24:00,
2013-02-15 00:29:00,57.3,27.7,30.09,ENE,71,3.0,7.0,32,0.00,,,0.00,Wunderground v.1.15,2013-02-15 08:29:00,
2013-02-15 00:34:00,57.3,27.7,30.09,East,101,4.0,4.0,32,0.00,,,0.00,Wunderground v.1.15,2013-02-15 08:34:00,
2013-02-15 00:40:00,57.6,27.9,30.09,East,82,5.0,5.0,32,0.00,,,0.00,Wunderground v.1.15,2013-02-15 08:40:00,
2013-02-15 00:45:00,57.5,27.8,30.09,ENE,74,0.0,6.0,32,0.00,,,0.00,Wunderground v.1.15,2013-02-15 08:45:00,
2013-02-15 00:50:00,57.5,27.8,30.09,ESE,107,0.0,2.0,32,0.00,,,0.00,Wunderground v.1.15,2013-02-15 08:50:00,
2013-02-15 00:56:00,57.4,27.7,30.09,ESE,102,1.0,2.0,32,0.00,,,0.00,Wunderground v.1.15,2013-02-15 08:56:00,
2013-02-15 01:01:00,57.2,27.6,30.09,ENE,64,1.0,3.0,32,0.00,,,0.00,Wunderground v.1.15,2013-02-15 09:01:00,
2013-02-15 01:06:00,57.1,27.5,30.08,East,87,1.0,3.0,32,0.00,,,0.00,Wunderground v.1.15,2013-02-15 09:06:00,
2013-02-15 01:12:00,57.0,27.4,30.08,NNE,18,1.0,2.0,32,0.00,,,0.00,Wunderground v.1.15,2013-02-15 09:12:00,
2013-02-15 01:17:00,57.0,27.4,30.09,ENE,64,5.0,7.0,32,0.00,,,0.00,Wunderground v.1.15,2013-02-15 09:17:00,
2013-02-15 01:22:00,57.0,27.4,30.09,ESE,105,0.0,2.0,32,0.00,,,0.00,Wunderground v.1.15,2013-02-15 09:22:00,
2013-02-15 01:27:00,56.7,27.1,30.08,ENE,73,1.0,2.0,32,0.00,,,0.00,Wunderground v.1.15,2013-02-15 09:27:00,
2013-02-15 01:33:00,56.6,27.8,30.08,SE,132,0.0,1.0,33,0.00,,,0.00,Wunderground v.1.15,2013-02-15 09:33:00,
2013-02-15 01:38:00,56.5,27.7,30.08,East,101,2.0,2.0,33,0.00,,,0.00,Wunderground v.1.15,2013-02-15 09:38:00,
2013-02-15 01:43:00,56.4,27.6,30.08,ESE,114,5.0,5.0,33,0.00,,,0.00,Wunderground v.1.15,2013-02-15 09:43:00,
2013-02-15 01:49:00,57.0,27.4,30.08,ENE,59,1.0,6.0,32,0.00,,,0.00,Wunderground v.1.15,2013-02-15 09:49:00,
2013-02-15 01:54:00,57.1,27.5,30.08,East,82,1.0,3.0,32,0.00,,,0.00,Wunderground v.1.15,2013-02-15 09:54:00,
2013-02-15 01:59:00,56.9,27.3,30.08,East,82,1.0,3.0,32,0.00,,,0.00,Wunderground v.1.15,2013-02-15 09:59:00,
2013-02-15 02:04:00,56.8,27.2,30.08,ESE,107,1.0,7.0,32,0.00,,,0.00,Wunderground v.1.15,2013-02-15 10:04:00,
2013-02-15 02:09:00,56.6,27.0,30.08,ENE,67,4.0,7.0,32,0.00,,,0.00,Wunderground v.1.15,2013-02-15 10:09:00,
2013-02-15 02:14:00,56.6,27.0,30.08,East,86,0.0,7.0,32,0.00,,,0.00,Wunderground v.1.15,2013-02-15 10:14:00,
2013-02-15 02:19:00,56.5,27.0,30.08,East,92,1.0,7.0,32,0.00,,,0.00,Wunderground v.1.15,2013-02-15 10:19:00,
2013-02-15 02:24:00,56.3,27.5,30.08,East,90,0.0,5.0,33,0.00,,,0.00,Wunderground v.1.15,2013-02-15 10:24:00,
2013-02-15 02:29:00,56.3,27.5,30.08,East,100,0.0,6.0,33,0.00,,,0.00,Wunderground v.1.15,2013-02-15 10:29:00,
2013-02-15 02:34:00,56.4,26.9,30.08,ESE,111,1.0,7.0,32,0.00,,,0.00,Wunderground v.1.15,2013-02-15 10:34:00,
2013-02-15 02:39:00,56.4,26.9,30.08,East,101,1.0,7.0,32,0.00,,,0.00,Wunderground v.1.15,2013-02-15 10:39:00,
2013-02-15 02:44:00,56.3,26.8,30.08,East,94,0.0,5.0,32,0.00,,,0.00,Wunderground v.1.15,2013-02-15 10:44:00,
2013-02-15 02:49:00,56.3,26.8,30.08,ESE,121,0.0,6.0,32,0.00,,,0.00,Wunderground v.1.15,2013-02-15 10:49:00,
2013-02-15 02:54:00,56.4,26.9,30.08,East,100,1.0,7.0,32,0.00,,,0.00,Wunderground v.1.15,2013-02-15 10:54:00,
2013-02-15 02:59:00,56.3,26.8,30.08,East,79,0.0,7.0,32,0.00,,,0.00,Wunderground v.1.15,2013-02-15 10:59:00,
2013-02-15 03:04:00,56.3,26.8,30.08,East,92,1.0,5.0,32,0.00,,,0.00,Wunderground v.1.15,2013-02-15 11:04:00,
2013-02-15 03:09:00,56.4,26.9,30.08,ENE,67,0.0,7.0,32,0.00,,,0.00,Wunderground v.1.15,2013-02-15 11:09:00,
2013-02-15 03:14:00,56.3,26.8,30.08,ENE,78,1.0,5.0,32,0.00,,,0.00,Wunderground v.1.15,2013-02-15 11:14:00,
2013-02-15 03:19:00,56.3,26.8,30.08,ESE,111,1.0,5.0,32,0.00,,,0.00,Wunderground v.1.15,2013-02-15 11:19:00,
2013-02-15 03:24:00,56.2,27.4,30.08,ESE,109,1.0,5.0,33,0.00,,,0.00,Wunderground v.1.15,2013-02-15 11:24:00,
2013-02-15 03:29:00,56.0,27.3,30.08,ENE,74,0.0,7.0,33,0.00,,,0.00,Wunderground v.1.15,2013-02-15 11:29:00,
2013-02-15 03:34:00,55.9,27.2,30.08,East,82,0.0,2.0,33,0.00,,,0.00,Wunderground v.1.15,2013-02-15 11:34:00,
2013-02-15 03:39:00,55.5,26.8,30.08,NE,46,0.0,4.0,33,0.00,,,0.00,Wunderground v.1.15,2013-02-15 11:39:00,
2013-02-15 03:45:00,55.3,26.7,30.08,East,89,0.0,2.0,33,0.00,,,0.00,Wunderground v.1.15,2013-02-15 11:45:00,
2013-02-15 03:50:00,55.1,26.5,30.08,ESE,102,0.0,2.0,33,0.00,,,0.00,Wunderground v.1.15,2013-02-15 11:50:00,
2013-02-15 03:55:00,55.1,26.5,30.09,NNE,28,0.0,5.0,33,0.00,,,0.00,Wunderground v.1.15,2013-02-15 11:55:00,
2013-02-15 03:59:00,55.2,26.6,30.09,ENE,63,2.0,5.0,33,0.00,,,0.00,Wunderground v.1.15,2013-02-15 11:59:00,
2013-02-15 04:04:00,55.3,26.7,30.09,NE,44,0.0,10.0,33,0.00,,,0.00,Wunderground v.1.15,2013-02-15 12:04:00,
2013-02-15 04:09:00,55.2,26.6,30.09,ESE,112,0.0,10.0,33,0.00,,,0.00,Wunderground v.1.15,2013-02-15 12:09:00,
2013-02-15 04:14:00,55.3,26.7,30.10,SSE,156,0.0,7.0,33,0.00,,,0.00,Wunderground v.1.15,2013-02-15 12:14:00,
2013-02-15 04:20:00,55.5,26.8,30.09,ENE,61,0.0,7.0,33,0.00,,,0.00,Wunderground v.1.15,2013-02-15 12:20:00,
2013-02-15 04:25:00,55.5,26.8,30.09,ENE,74,9.0,11.0,33,0.00,,,0.00,Wunderground v.1.15,2013-02-15 12:25:00,
2013-02-15 04:30:00,55.9,26.4,30.09,ESE,105,2.0,11.0,32,0.00,,,0.00,Wunderground v.1.15,2013-02-15 12:30:00,
2013-02-15 04:35:00,56.0,26.5,30.09,ESE,103,0.0,5.0,32,0.00,,,0.00,Wunderground v.1.15,2013-02-15 12:35:00,
2013-02-15 04:40:00,55.9,26.4,30.09,North,360,1.0,1.0,32,0.00,,,0.00,Wunderground v.1.15,2013-02-15 12:40:00,
2013-02-15 04:45:00,55.8,26.3,30.09,NE,48,0.0,4.0,32,0.00,,,0.00,Wunderground v.1.15,2013-02-15 12:45:00,
2013-02-15 04:50:00,55.8,26.3,30.09,NNE,13,1.0,2.0,32,0.00,,,0.00,Wunderground v.1.15,2013-02-15 12:50:00,
2013-02-15 04:55:00,55.8,26.3,30.09,ESE,105,0.0,5.0,32,0.00,,,0.00,Wunderground v.1.15,2013-02-15 12:55:00,
2013-02-15 05:00:00,56.0,26.5,30.08,ESE,111,0.0,1.0,32,0.00,,,0.00,Wunderground v.1.15,2013-02-15 13:00:00,
2013-02-15 05:05:00,56.1,26.6,30.10,ENE,74,0.0,10.0,32,0.00,,,0.00,Wunderground v.1.15,2013-02-15 13:05:00,
2013-02-15 05:10:00,56.2,26.7,30.10,ESE,107,5.0,6.0,32,0.00,,,0.00,Wunderground v.1.15,2013-02-15 13:10:00,
2013-02-15 05:15:00,56.1,26.6,30.10,NE,39,0.0,11.0,32,0.00,,,0.00,Wunderground v.1.15,2013-02-15 13:15:00,
2013-02-15 05:20:00,56.0,26.5,30.09,ESE,115,0.0,2.0,32,0.00,,,0.00,Wunderground v.1.15,2013-02-15 13:20:00,
2013-02-15 05:25:00,55.9,26.4,30.10,East,91,2.0,9.0,32,0.00,,,0.00,Wunderground v.1.15,2013-02-15 13:25:00,
2013-02-15 05:30:00,56.0,26.5,30.09,ESE,107,6.0,6.0,32,0.00,,,0.00,Wunderground v.1.15,2013-02-15 13:30:00,
2013-02-15 05:35:00,55.9,26.4,30.09,NE,48,0.0,10.0,32,0.00,,,0.00,Wunderground v.1.15,2013-02-15 13:35:00,
2013-02-15 05:40:00,55.8,26.3,30.09,ESE,113,4.0,5.0,32,0.00,,,0.00,Wunderground v.1.15,2013-02-15 13:40:00,
2013-02-15 05:45:00,55.6,26.2,30.09,NNE,16,0.0,11.0,32,0.00,,,0.00,Wunderground v.1.15,2013-02-15 13:45:00,
2013-02-15 05:50:00,55.4,26.0,30.09,ENE,66,1.0,2.0,32,0.00,,,0.00,Wunderground v.1.15,2013-02-15 13:50:00,
2013-02-15 05:55:00,55.5,25.3,30.08,ESE,102,3.0,10.0,31,0.00,,,0.00,Wunderground v.1.15,2013-02-15 13:55:00,
2013-02-15 06:00:00,55.8,24.8,30.08,ENE,62,8.0,14.0,30,0.00,,,0.00,Wunderground v.1.15,2013-02-15 14:00:00,
2013-02-15 06:05:00,56.0,25.0,30.09,East,99,10.0,14.0,30,0.00,,,0.00,Wunderground v.1.15,2013-02-15 14:05:00,
2013-02-15 06:10:00,56.0,24.2,30.09,ENE,71,1.0,7.0,29,0.00,,,0.00,Wunderground v.1.15,2013-02-15 14:10:00,
2013-02-15 06:15:00,56.1,24.2,30.09,ESE,106,1.0,13.0,29,0.00,,,0.00,Wunderground v.1.15,2013-02-15 14:15:00,
2013-02-15 06:20:00,56.0,23.3,30.09,East,94,11.0,11.0,28,0.00,,,0.00,Wunderground v.1.15,2013-02-15 14:20:00,
2013-02-15 06:25:00,55.9,23.2,30.09,ESE,106,1.0,15.0,28,0.00,,,0.00,Wunderground v.1.15,2013-02-15 14:25:00,
2013-02-15 06:30:00,56.0,23.3,30.09,SE,133,12.0,12.0,28,0.00,,,0.00,Wunderground v.1.15,2013-02-15 14:30:00,
2013-02-15 06:35:00,56.1,23.4,30.09,East,88,6.0,15.0,28,0.00,,,0.00,Wunderground v.1.15,2013-02-15 14:35:00,
2013-02-15 06:40:00,56.1,23.4,30.09,ESE,111,10.0,12.0,28,0.00,,,0.00,Wunderground v.1.15,2013-02-15 14:40:00,
2013-02-15 06:45:00,56.0,22.4,30.10,East,100,11.0,19.0,27,0.00,,,0.00,Wunderground v.1.15,2013-02-15 14:45:00,
2013-02-15 06:50:00,56.3,22.7,30.10,East,95,10.0,10.0,27,0.00,,,0.00,Wunderground v.1.15,2013-02-15 14:50:00,
2013-02-15 06:55:00,56.1,22.5,30.10,ENE,73,10.0,15.0,27,0.00,,,0.00,Wunderground v.1.15,2013-02-15 14:55:00,
2013-02-15 07:00:00,56.3,23.6,30.10,ENE,72,4.0,12.0,28,0.00,,,0.00,Wunderground v.1.15,2013-02-15 15:00:00,
2013-02-15 07:05:00,56.3,22.7,30.10,ESE,117,7.0,12.0,27,0.00,,,0.00,Wunderground v.1.15,2013-02-15 15:05:00,
2013-02-15 07:10:00,56.5,22.9,30.10,ESE,105,7.0,14.0,27,0.00,,,0.00,Wunderground v.1.15,2013-02-15 15:10:00,
2013-02-15 07:15:00,56.8,22.2,30.10,North,11,7.0,14.0,26,0.00,,,0.00,Wunderground v.1.15,2013-02-15 15:15:00,
2013-02-15 07:20:00,57.4,22.8,30.11,ENE,63,7.0,16.0,26,0.00,,,0.00,Wunderground v.1.15,2013-02-15 15:20:00,
2013-02-15 07:25:00,57.8,23.1,30.11,NE,54,1.0,16.0,26,0.00,,,0.00,Wunderground v.1.15,2013-02-15 15:25:00,
2013-02-15 07:30:00,58.1,22.4,30.11,ENE,60,10.0,11.0,25,0.00,,,0.00,Wunderground v.1.15,2013-02-15 15:30:00,
2013-02-15 07:35:00,58.3,22.6,30.11,NE,48,7.0,15.0,25,0.00,,,0.00,Wunderground v.1.15,2013-02-15 15:35:00,
2013-02-15 07:40:00,58.6,22.8,30.11,ENE,74,17.0,17.0,25,0.00,,,0.00,Wunderground v.1.15,2013-02-15 15:40:00,
2013-02-15 07:45:00,58.8,22.0,30.11,ENE,76,7.0,22.0,24,0.00,,,0.00,Wunderground v.1.15,2013-02-15 15:45:00,
2013-02-15 07:50:00,59.0,21.2,30.11,ESE,122,9.0,14.0,23,0.00,,,0.00,Wunderground v.1.15,2013-02-15 15:50:00,
2013-02-15 07:55:00,59.5,20.6,30.11,SE,135,9.0,18.0,22,0.00,,,0.00,Wunderground v.1.15,2013-02-15 15:55:00,
2013-02-15 08:00:00,59.8,20.8,30.11,ESE,105,3.0,12.0,22,0.00,,,0.00,Wunderground v.1.15,2013-02-15 16:00:00,
2013-02-15 08:05:00,59.9,22.0,30.11,ESE,114,10.0,23.0,23,0.00,,,0.00,Wunderground v.1.15,2013-02-15 16:05:00,
2013-02-15 08:11:00,60.2,21.2,30.11,ESE,117,9.0,19.0,22,0.00,,,0.00,Wunderground v.1.15,2013-02-15 16:11:00,
2013-02-15 08:16:00,60.3,21.2,30.11,East,94,1.0,19.0,22,0.00,,,0.00,Wunderground v.1.15,2013-02-15 16:16:00,
2013-02-15 08:21:00,60.3,21.2,30.12,ENE,75,14.0,22.0,22,0.00,,,0.00,Wunderground v.1.15,2013-02-15 16:21:00,
2013-02-15 08:26:00,60.6,20.4,30.11,East,80,15.0,22.0,21,0.00,,,0.00,Wunderground v.1.15,2013-02-15 16:26:00,
2013-02-15 08:31:00,61.0,20.7,30.11,East,88,9.0,17.0,21,0.00,,,0.00,Wunderground v.1.15,2013-02-15 16:31:00,
2013-02-15 08:36:00,61.5,20.0,30.11,ENE,64,7.0,24.0,20,0.00,,,0.00,Wunderground v.1.15,2013-02-15 16:36:00,
2013-02-15 08:41:00,62.0,20.4,30.12,ENE,78,9.0,14.0,20,0.00,,,0.00,Wunderground v.1.15,2013-02-15 16:41:00,
2013-02-15 08:46:00,62.2,20.6,30.12,ENE,69,9.0,19.0,20,0.00,,,0.00,Wunderground v.1.15,2013-02-15 16:46:00,
2013-02-15 08:51:00,62.2,21.7,30.12,ESE,113,12.0,12.0,21,0.00,,,0.00,Wunderground v.1.15,2013-02-15 16:51:00,
2013-02-15 08:56:00,62.2,20.6,30.12,East,82,12.0,18.0,20,0.00,,,0.00,Wunderground v.1.15,2013-02-15 16:56:00,
2013-02-15 09:01:00,62.3,20.7,30.12,East,91,15.0,15.0,20,0.00,,,0.00,Wunderground v.1.15,2013-02-15 17:01:00,
2013-02-15 09:06:00,62.3,20.7,30.11,ENE,76,11.0,18.0,20,0.00,,,0.00,Wunderground v.1.15,2013-02-15 17:06:00,
2013-02-15 09:11:00,62.4,20.8,30.12,ENE,61,9.0,26.0,20,0.00,,,0.00,Wunderground v.1.15,2013-02-15 17:11:00,
2013-02-15 09:16:00,62.7,21.0,30.12,SE,146,7.0,26.0,20,0.00,,,0.00,Wunderground v.1.15,2013-02-15 17:16:00,
2013-02-15 09:21:00,62.8,21.1,30.12,East,101,9.0,17.0,20,0.00,,,0.00,Wunderground v.1.15,2013-02-15 17:21:00,
2013-02-15 09:26:00,63.0,21.2,30.12,ENE,71,7.0,19.0,20,0.00,,,0.00,Wunderground v.1.15,2013-02-15 17:26:00,
2013-02-15 09:31:00,62.9,21.2,30.12,ENE,78,13.0,18.0,20,0.00,,,0.00,Wunderground v.1.15,2013-02-15 17:31:00,
2013-02-15 09:36:00,62.9,21.2,30.12,East,98,11.0,19.0,20,0.00,,,0.00,Wunderground v.1.15,2013-02-15 17:36:00,
2013-02-15 09:41:00,62.9,21.2,30.12,East,83,7.0,18.0,20,0.00,,,0.00,Wunderground v.1.15,2013-02-15 17:41:00,
2013-02-15 09:46:00,63.0,21.2,30.13,ENE,68,12.0,18.0,20,0.00,,,0.00,Wunderground v.1.15,2013-02-15 17:46:00,
2013-02-15 09:51:00,63.0,21.2,30.12,SE,146,10.0,19.0,20,0.00,,,0.00,Wunderground v.1.15,2013-02-15 17:51:00,
2013-02-15 09:56:00,63.1,21.3,30.13,NNE,28,5.0,23.0,20,0.00,,,0.00,Wunderground v.1.15,2013-02-15 17:56:00,
2013-02-15 10:01:00,63.1,21.3,30.13,ESE,115,5.0,18.0,20,0.00,,,0.00,Wunderground v.1.15,2013-02-15 18:01:00,
2013-02-15 10:06:00,63.3,21.5,30.12,SE,124,10.0,20.0,20,0.00,,,0.00,Wunderground v.1.15,2013-02-15 18:06:00,
2013-02-15 10:11:00,63.7,23.0,30.12,ESE,109,16.0,16.0,21,0.00,,,0.00,Wunderground v.1.15,2013-02-15 18:11:00,
2013-02-15 10:16:00,63.7,21.8,30.12,ENE,76,2.0,23.0,20,0.00,,,0.00,Wunderground v.1.15,2013-02-15 18:16:00,
2013-02-15 10:21:00,63.9,22.0,30.13,NE,36,12.0,19.0,20,0.00,,,0.00,Wunderground v.1.15,2013-02-15 18:21:00,
2013-02-15 10:26:00,64.1,22.2,30.12,ESE,108,6.0,21.0,20,0.00,,,0.00,Wunderground v.1.15,2013-02-15 18:26:00,
2013-02-15 10:31:00,64.4,22.4,30.13,ESE,113,4.0,16.0,20,0.00,,,0.00,Wunderground v.1.15,2013-02-15 18:31:00,
2013-02-15 10:36:00,64.3,22.3,30.13,ENE,71,6.0,20.0,20,0.00,,,0.00,Wunderground v.1.15,2013-02-15 18:36:00,
2013-02-15 10:41:00,64.4,23.6,30.13,ESE,119,24.0,24.0,21,0.00,,,0.00,Wunderground v.1.15,2013-02-15 18:41:00,
2013-02-15 10:46:00,64.6,22.6,30.13,ESE,111,15.0,24.0,20,0.00,,,0.00,Wunderground v.1.15,2013-02-15 18:46:00,
2013-02-15 10:51:00,64.7,22.7,30.13,SE,128,7.0,16.0,20,0.00,,,0.00,Wunderground v.1.15,2013-02-15 18:51:00,
2013-02-15 10:56:00,64.8,22.7,30.13,East,91,10.0,22.0,20,0.00,,,0.00,Wunderground v.1.15,2013-02-15 18:56:00,
2013-02-15 11:01:00,64.8,23.9,30.12,SE,130,11.0,16.0,21,0.00,,,0.00,Wunderground v.1.15,2013-02-15 19:01:00,
2013-02-15 11:06:00,65.0,24.1,30.12,ESE,109,6.0,18.0,21,0.00,,,0.00,Wunderground v.1.15,2013-02-15 19:06:00,
2013-02-15 11:11:00,64.7,23.8,30.12,SE,138,11.0,21.0,21,0.00,,,0.00,Wunderground v.1.15,2013-02-15 19:11:00,
2013-02-15 11:16:00,64.7,23.8,30.12,ENE,76,9.0,21.0,21,0.00,,,0.00,Wunderground v.1.15,2013-02-15 19:16:00,
2013-02-15 11:21:00,64.7,23.8,30.12,ESE,107,6.0,22.0,21,0.00,,,0.00,Wunderground v.1.15,2013-02-15 19:21:00,
2013-02-15 11:26:00,64.8,23.9,30.12,SE,140,12.0,22.0,21,0.00,,,0.00,Wunderground v.1.15,2013-02-15 19:26:00,
2013-02-15 11:31:00,65.1,24.2,30.13,ESE,113,1.0,17.0,21,0.00,,,0.00,Wunderground v.1.15,2013-02-15 19:31:00,
2013-02-15 11:36:00,65.0,24.1,30.13,SE,129,10.0,20.0,21,0.00,,,0.00,Wunderground v.1.15,2013-02-15 19:36:00,
2013-02-15 11:41:00,64.9,24.0,30.13,East,92,15.0,22.0,21,0.00,,,0.00,Wunderground v.1.15,2013-02-15 19:41:00,
2013-02-15 11:47:00,64.9,25.1,30.12,ENE,71,3.0,22.0,22,0.00,,,0.00,Wunderground v.1.15,2013-02-15 19:47:00,
2013-02-15 11:52:00,65.2,25.4,30.13,SSE,148,2.0,14.0,22,0.00,,,0.00,Wunderground v.1.15,2013-02-15 19:52:00,
2013-02-15 11:57:00,65.4,24.4,30.12,East,88,16.0,25.0,21,0.00,,,0.00,Wunderground v.1.15,2013-02-15 19:57:00,
2013-02-15 12:02:00,65.7,25.8,30.12,ESE,109,19.0,19.0,22,0.00,,,0.00,Wunderground v.1.15,2013-02-15 20:02:00,
2013-02-15 12:07:00,65.5,25.6,30.12,ESE,111,6.0,21.0,22,0.00,,,0.00,Wunderground v.1.15,2013-02-15 20:07:00,
2013-02-15 12:12:00,66.0,26.0,30.12,SE,125,12.0,19.0,22,0.00,,,0.00,Wunderground v.1.15,2013-02-15 20:12:00,
2013-02-15 12:17:00,66.0,24.9,30.12,ESE,113,15.0,21.0,21,0.00,,,0.00,Wunderground v.1.15,2013-02-15 20:17:00,
2013-02-15 12:22:00,65.8,24.7,30.12,ESE,113,6.0,20.0,21,0.00,,,0.00,Wunderground v.1.15,2013-02-15 20:22:00,
2013-02-15 12:27:00,65.8,23.6,30.11,ESE,103,5.0,20.0,20,0.00,,,0.00,Wunderground v.1.15,2013-02-15 20:27:00,
2013-02-15 12:32:00,65.8,24.7,30.11,ESE,121,9.0,22.0,21,0.00,,,0.00,Wunderground v.1.15,2013-02-15 20:32:00,
2013-02-15 12:37:00,65.7,24.7,30.11,ESE,119,12.0,22.0,21,0.00,,,0.00,Wunderground v.1.15,2013-02-15 20:37:00,
2013-02-15 12:42:00,65.8,24.7,30.11,SSE,159,14.0,18.0,21,0.00,,,0.00,Wunderground v.1.15,2013-02-15 20:42:00,
2013-02-15 12:47:00,66.2,25.1,30.11,ENE,74,12.0,21.0,21,0.00,,,0.00,Wunderground v.1.15,2013-02-15 20:47:00,
2013-02-15 12:52:00,66.3,25.2,30.11,East,92,10.0,19.0,21,0.00,,,0.00,Wunderground v.1.15,2013-02-15 20:52:00,
2013-02-15 12:57:00,66.0,24.9,30.10,East,84,1.0,25.0,21,0.00,,,0.00,Wunderground v.1.15,2013-02-15 20:57:00,
2013-02-15 13:02:00,66.3,24.0,30.11,East,86,4.0,18.0,20,0.00,,,0.00,Wunderground v.1.15,2013-02-15 21:02:00,
2013-02-15 13:07:00,66.3,24.0,30.10,ESE,114,11.0,21.0,20,0.00,,,0.00,Wunderground v.1.15,2013-02-15 21:07:00,
2013-02-15 13:12:00,66.3,22.8,30.11,NE,49,3.0,20.0,19,0.00,,,0.00,Wunderground v.1.15,2013-02-15 21:12:00,
2013-02-15 13:17:00,66.5,24.2,30.10,SE,142,13.0,21.0,20,0.00,,,0.00,Wunderground v.1.15,2013-02-15 21:17:00,
2013-02-15 13:22:00,66.3,24.0,30.11,NE,44,12.0,24.0,20,0.00,,,0.00,Wunderground v.1.15,2013-02-15 21:22:00,
2013-02-15 13:27:00,66.7,24.3,30.10,ENE,73,13.0,24.0,20,0.00,,,0.00,Wunderground v.1.15,2013-02-15 21:27:00,
2013-02-15 13:32:00,66.5,24.2,30.11,East,95,4.0,18.0,20,0.00,,,0.00,Wunderground v.1.15,2013-02-15 21:32:00,
2013-02-15 13:37:00,66.4,22.8,30.10,SE,134,11.0,20.0,19,0.00,,,0.00,Wunderground v.1.15,2013-02-15 21:37:00,
2013-02-15 13:42:00,66.5,24.2,30.11,SE,134,10.0,16.0,20,0.00,,,0.00,Wunderground v.1.15,2013-02-15 21:42:00,
2013-02-15 13:47:00,66.6,23.0,30.11,East,95,8.0,19.0,19,0.00,,,0.00,Wunderground v.1.15,2013-02-15 21:47:00,
2013-02-15 13:52:00,66.8,24.4,30.11,ESE,118,12.0,13.0,20,0.00,,,0.00,Wunderground v.1.15,2013-02-15 21:52:00,
2013-02-15 13:57:00,66.9,23.3,30.10,SE,141,11.0,18.0,19,0.00,,,0.00,Wunderground v.1.15,2013-02-15 21:57:00,
2013-02-15 14:02:00,67.0,23.3,30.11,SE,128,7.0,13.0,19,0.00,,,0.00,Wunderground v.1.15,2013-02-15 22:02:00,
2013-02-15 14:07:00,67.2,23.5,30.11,East,99,2.0,19.0,19,0.00,,,0.00,Wunderground v.1.15,2013-02-15 22:07:00,
2013-02-15 14:12:00,67.1,23.4,30.11,ESE,102,12.0,20.0,19,0.00,,,0.00,Wunderground v.1.15,2013-02-15 22:12:00,
2013-02-15 14:17:00,67.0,23.3,30.10,SE,142,4.0,20.0,19,0.00,,,0.00,Wunderground v.1.15,2013-02-15 22:17:00,
2013-02-15 14:22:00,67.1,22.1,30.10,NNE,24,11.0,16.0,18,0.00,,,0.00,Wunderground v.1.15,2013-02-15 22:22:00,
2013-02-15 14:27:00,67.0,22.1,30.10,East,80,6.0,19.0,18,0.00,,,0.00,Wunderground v.1.15,2013-02-15 22:27:00,
2013-02-15 14:32:00,67.3,23.6,30.10,ESE,111,9.0,17.0,19,0.00,,,0.00,Wunderground v.1.15,2013-02-15 22:32:00,
2013-02-15 14:37:00,67.5,22.5,30.10,ESE,118,8.0,17.0,18,0.00,,,0.00,Wunderground v.1.15,2013-02-15 22:37:00,
2013-02-15 14:42:00,67.6,22.5,30.10,ENE,71,7.0,18.0,18,0.00,,,0.00,Wunderground v.1.15,2013-02-15 22:42:00,
2013-02-15 14:47:00,67.1,22.1,30.10,SE,144,4.0,18.0,18,0.00,,,0.00,Wunderground v.1.15,2013-02-15 22:47:00,
2013-02-15 14:52:00,67.2,22.2,30.10,ESE,117,9.0,13.0,18,0.00,,,0.00,Wunderground v.1.15,2013-02-15 22:52:00,
2013-02-15 14:57:00,67.0,22.1,30.10,SE,125,9.0,18.0,18,0.00,,,0.00,Wunderground v.1.15,2013-02-15 22:57:00,
2013-02-15 15:02:00,66.6,21.7,30.10,ESE,123,9.0,18.0,18,0.00,,,0.00,Wunderground v.1.15,2013-02-15 23:02:00,
2013-02-15 15:08:00,66.4,21.6,30.11,East,98,2.0,18.0,18,0.00,,,0.00,Wunderground v.1.15,2013-02-15 23:08:00,
2013-02-15 15:13:00,66.7,21.8,30.10,East,88,2.0,18.0,18,0.00,,,0.00,Wunderground v.1.15,2013-02-15 23:13:00,
2013-02-15 15:18:00,67.3,22.3,30.11,ESE,116,10.0,18.0,18,0.00,,,0.00,Wunderground v.1.15,2013-02-15 23:18:00,
2013-02-15 15:23:00,67.4,22.4,30.10,East,98,1.0,15.0,18,0.00,,,0.00,Wunderground v.1.15,2013-02-15 23:23:00,
2013-02-15 15:28:00,67.6,22.5,30.11,SE,124,13.0,16.0,18,0.00,,,0.00,Wunderground v.1.15,2013-02-15 23:28:00,
2013-02-15 15:33:00,67.4,22.4,30.10,East,79,11.0,16.0,18,0.00,,,0.00,Wunderground v.1.15,2013-02-15 23:33:00,
2013-02-15 15:38:00,67.6,22.5,30.10,East,86,9.0,16.0,18,0.00,,,0.00,Wunderground v.1.15,2013-02-15 23:38:00,
2013-02-15 15:43:00,67.5,21.1,30.10,ESE,102,0.0,16.0,17,0.00,,,0.00,Wunderground v.1.15,2013-02-15 23:43:00,
2013-02-15 15:48:00,67.2,20.9,30.11,SSE,157,9.0,16.0,17,0.00,,,0.00,Wunderground v.1.15,2013-02-15 23:48:00,
2013-02-15 15:53:00,67.0,20.7,30.11,East,80,9.0,19.0,17,0.00,,,0.00,Wunderground v.1.15,2013-02-15 23:53:00,
2013-02-15 15:58:00,66.7,20.5,30.11,East,87,3.0,19.0,17,0.00,,,0.00,Wunderground v.1.15,2013-02-15 23:58:00,
2013-02-15 16:03:00,66.5,20.3,30.11,ESE,113,1.0,13.0,17,0.00,,,0.00,Wunderground v.1.15,2013-02-16 00:03:00,
2013-02-15 16:08:00,66.6,20.4,30.11,ENE,72,13.0,13.0,17,0.00,,,0.00,Wunderground v.1.15,2013-02-16 00:08:00,
2013-02-15 16:13:00,66.7,20.5,30.11,SE,124,3.0,16.0,17,0.00,,,0.00,Wunderground v.1.15,2013-02-16 00:13:00,
2013-02-15 16:18:00,66.9,20.6,30.11,SE,140,5.0,16.0,17,0.00,,,0.00,Wunderground v.1.15,2013-02-16 00:18:00,
2013-02-15 16:23:00,66.7,20.5,30.11,East,82,6.0,11.0,17,0.00,,,0.00,Wunderground v.1.15,2013-02-16 00:23:00,
2013-02-15 16:28:00,66.5,20.3,30.11,East,84,5.0,12.0,17,0.00,,,0.00,Wunderground v.1.15,2013-02-16 00:28:00,
2013-02-15 16:33:00,66.1,20.0,30.11,East,82,1.0,13.0,17,0.00,,,0.00,Wunderground v.1.15,2013-02-16 00:33:00,
2013-02-15 16:38:00,65.8,19.7,30.11,East,89,0.0,14.0,17,0.00,,,0.00,Wunderground v.1.15,2013-02-16 00:38:00,
2013-02-15 16:43:00,65.5,19.5,30.11,ESE,113,10.0,11.0,17,0.00,,,0.00,Wunderground v.1.15,2013-02-16 00:43:00,
2013-02-15 16:48:00,65.3,19.3,30.12,ESE,109,10.0,13.0,17,0.00,,,0.00,Wunderground v.1.15,2013-02-16 00:48:00,
2013-02-15 16:53:00,65.2,19.2,30.12,ENE,57,5.0,11.0,17,0.00,,,0.00,Wunderground v.1.15,2013-02-16 00:53:00,
2013-02-15 16:58:00,65.1,19.2,30.12,ESE,102,0.0,11.0,17,0.00,,,0.00,Wunderground v.1.15,2013-02-16 00:58:00,
2013-02-15 17:03:00,64.7,20.2,30.12,ESE,109,0.0,6.0,18,0.00,,,0.00,Wunderground v.1.15,2013-02-16 01:03:00,
2013-02-15 17:08:00,64.4,19.9,30.12,ESE,109,0.0,12.0,18,0.00,,,0.00,Wunderground v.1.15,2013-02-16 01:08:00,
2013-02-15 17:13:00,64.1,19.7,30.12,SSE,151,7.0,10.0,18,0.00,,,0.00,Wunderground v.1.15,2013-02-16 01:13:00,
2013-02-15 17:18:00,64.0,19.6,30.12,SE,142,12.0,12.0,18,0.00,,,0.00,Wunderground v.1.15,2013-02-16 01:18:00,
2013-02-15 17:23:00,63.8,20.7,30.12,East,83,0.0,8.0,19,0.00,,,0.00,Wunderground v.1.15,2013-02-16 01:23:00,
2013-02-15 17:28:00,63.6,19.3,30.12,ESE,106,3.0,12.0,18,0.00,,,0.00,Wunderground v.1.15,2013-02-16 01:28:00,
2013-02-15 17:33:00,63.4,20.4,30.13,ESE,113,0.0,10.0,19,0.00,,,0.00,Wunderground v.1.15,2013-02-16 01:33:00,
2013-02-15 17:38:00,63.1,20.1,30.13,SE,138,0.0,12.0,19,0.00,,,0.00,Wunderground v.1.15,2013-02-16 01:38:00,
2013-02-15 17:43:00,62.8,19.9,30.14,SE,129,4.0,10.0,19,0.00,,,0.00,Wunderground v.1.15,2013-02-16 01:43:00,
2013-02-15 17:48:00,62.6,19.7,30.14,SE,126,0.0,14.0,19,0.00,,,0.00,Wunderground v.1.15,2013-02-16 01:48:00,
2013-02-15 17:53:00,62.3,20.7,30.14,East,100,2.0,9.0,20,0.00,,,0.00,Wunderground v.1.15,2013-02-16 01:53:00,
2013-02-15 17:58:00,62.1,20.5,30.14,ESE,107,0.0,10.0,20,0.00,,,0.00,Wunderground v.1.15,2013-02-16 01:58:00,
2013-02-15 18:03:00,62.1,20.5,30.14,East,82,0.0,10.0,20,0.00,,,0.00,Wunderground v.1.15,2013-02-16 02:03:00,
2013-02-15 18:08:00,61.7,20.2,30.14,ESE,111,5.0,10.0,20,0.00,,,0.00,Wunderground v.1.15,2013-02-16 02:08:00,
2013-02-15 18:13:00,61.8,20.3,30.14,East,101,3.0,10.0,20,0.00,,,0.00,Wunderground v.1.15,2013-02-16 02:13:00,
2013-02-15 18:18:00,61.7,20.2,30.14,ENE,67,0.0,10.0,20,0.00,,,0.00,Wunderground v.1.15,2013-02-16 02:18:00,
2013-02-15 18:23:00,61.7,20.2,30.14,SE,124,6.0,12.0,20,0.00,,,0.00,Wunderground v.1.15,2013-02-16 02:23:00,
2013-02-15 18:28:00,61.7,20.2,30.15,ESE,115,3.0,15.0,20,0.00,,,0.00,Wunderground v.1.15,2013-02-16 02:28:00,
2013-02-15 18:33:00,61.7,20.2,30.14,East,87,0.0,12.0,20,0.00,,,0.00,Wunderground v.1.15,2013-02-16 02:33:00,
2013-02-15 18:38:00,61.5,20.0,30.15,East,91,0.0,12.0,20,0.00,,,0.00,Wunderground v.1.15,2013-02-16 02:38:00,
2013-02-15 18:44:00,61.3,19.8,30.15,East,80,7.0,10.0,20,0.00,,,0.00,Wunderground v.1.15,2013-02-16 02:44:00,
2013-02-15 18:49:00,61.3,19.8,30.15,East,82,9.0,14.0,20,0.00,,,0.00,Wunderground v.1.15,2013-02-16 02:49:00,
2013-02-15 18:53:00,61.4,19.9,30.15,SE,130,6.0,10.0,20,0.00,,,0.00,Wunderground v.1.15,2013-02-16 02:53:00,
2013-02-15 18:59:00,61.3,19.8,30.15,ENE,74,5.0,12.0,20,0.00,,,0.00,Wunderground v.1.15,2013-02-16 02:59:00,
2013-02-15 19:04:00,61.1,20.8,30.14,ESE,117,2.0,9.0,21,0.00,,,0.00,Wunderground v.1.15,2013-02-16 03:04:00,
2013-02-15 19:08:00,60.8,20.6,30.14,ENE,76,8.0,10.0,21,0.00,,,0.00,Wunderground v.1.15,2013-02-16 03:08:00,
2013-02-15 19:13:00,60.6,20.4,30.15,East,88,6.0,10.0,21,0.00,,,0.00,Wunderground v.1.15,2013-02-16 03:13:00,
2013-02-15 19:18:00,60.5,21.4,30.15,East,90,6.0,11.0,22,0.00,,,0.00,Wunderground v.1.15,2013-02-16 03:18:00,
2013-02-15 19:23:00,60.2,21.2,30.14,ESE,109,6.0,9.0,22,0.00,,,0.00,Wunderground v.1.15,2013-02-16 03:23:00,
2013-02-15 19:28:00,59.8,21.9,30.14,ENE,57,2.0,9.0,23,0.00,,,0.00,Wunderground v.1.15,2013-02-16 03:28:00,
2013-02-15 19:33:00,59.6,21.7,30.14,ESE,112,1.0,12.0,23,0.00,,,0.00,Wunderground v.1.15,2013-02-16 03:33:00,
2013-02-15 19:38:00,59.6,21.7,30.15,East,92,12.0,12.0,23,0.00,,,0.00,Wunderground v.1.15,2013-02-16 03:38:00,
2013-02-15 19:43:00,60.0,21.0,30.15,ESE,105,3.0,10.0,22,0.00,,,0.00,Wunderground v.1.15,2013-02-16 03:43:00,
2013-02-15 19:48:00,59.8,21.9,30.15,NE,52,7.0,10.0,23,0.00,,,0.00,Wunderground v.1.15,2013-02-16 03:48:00,
2013-02-15 19:53:00,59.5,21.6,30.15,ENE,78,10.0,14.0,23,0.00,,,0.00,Wunderground v.1.15,2013-02-16 03:53:00,
2013-02-15 19:58:00,59.2,21.4,30.15,ESE,108,4.0,14.0,23,0.00,,,0.00,Wunderground v.1.15,2013-02-16 03:58:00,
2013-02-15 20:04:00,59.0,21.2,30.15,SE,132,5.0,14.0,23,0.00,,,0.00,Wunderground v.1.15,2013-02-16 04:04:00,
2013-02-15 20:09:00,59.2,21.4,30.15,ENE,74,8.0,14.0,23,0.00,,,0.00,Wunderground v.1.15,2013-02-16 04:09:00,
2013-02-15 20:14:00,59.0,22.2,30.15,ESE,117,7.0,12.0,24,0.00,,,0.00,Wunderground v.1.15,2013-02-16 04:14:00,
2013-02-15 20:19:00,59.0,22.2,30.15,East,98,3.0,13.0,24,0.00,,,0.00,Wunderground v.1.15,2013-02-16 04:19:00,
2013-02-15 20:24:00,58.9,22.1,30.15,ESE,117,7.0,10.0,24,0.00,,,0.00,Wunderground v.1.15,2013-02-16 04:24:00,
2013-02-15 20:29:00,58.7,22.0,30.16,NE,54,2.0,11.0,24,0.00,,,0.00,Wunderground v.1.15,2013-02-16 04:29:00,
2013-02-15 20:34:00,58.5,21.8,30.16,ESE,105,5.0,10.0,24,0.00,,,0.00,Wunderground v.1.15,2013-02-16 04:34:00,
2013-02-15 20:39:00,58.3,22.6,30.16,East,97,5.0,10.0,25,0.00,,,0.00,Wunderground v.1.15,2013-02-16 04:39:00,
2013-02-15 20:44:00,58.1,22.4,30.16,ESE,108,0.0,7.0,25,0.00,,,0.00,Wunderground v.1.15,2013-02-16 04:44:00,
2013-02-15 20:49:00,58.0,22.3,30.16,SE,130,0.0,7.0,25,0.00,,,0.00,Wunderground v.1.15,2013-02-16 04:49:00,
2013-02-15 20:54:00,57.9,22.2,30.16,East,84,4.0,9.0,25,0.00,,,0.00,Wunderground v.1.15,2013-02-16 04:54:00,
2013-02-15 20:59:00,58.1,22.4,30.16,ESE,107,0.0,10.0,25,0.00,,,0.00,Wunderground v.1.15,2013-02-16 04:59:00,
2013-02-15 21:00:00,58.2,22.5,30.16,East,93,0.0,10.0,25,0.00,,,0.00,Wunderground v.1.15,2013-02-16 05:00:00,
2013-02-15 21:05:00,58.3,22.6,30.17,East,98,3.0,7.0,25,0.00,,,0.00,Wunderground v.1.15,2013-02-16 05:05:00,
2013-02-15 21:10:00,58.0,22.3,30.17,ESE,105,0.0,2.0,25,0.00,,,0.00,Wunderground v.1.15,2013-02-16 05:10:00,
2013-02-15 21:15:00,57.9,22.2,30.17,East,98,0.0,9.0,25,0.00,,,0.00,Wunderground v.1.15,2013-02-16 05:15:00,
2013-02-15 21:20:00,57.8,22.2,30.17,East,91,0.0,9.0,25,0.00,,,0.00,Wunderground v.1.15,2013-02-16 05:20:00,
2013-02-15 21:23:00,57.8,22.2,30.17,ESE,110,0.0,9.0,25,0.00,,,0.00,Wunderground v.1.15,2013-02-16 05:23:00,
2013-02-15 21:28:00,57.6,22.0,30.17,ENE,70,0.0,9.0,25,0.00,,,0.00,Wunderground v.1.15,2013-02-16 05:28:00,
2013-02-15 21:33:00,57.6,22.0,30.17,ENE,74,3.0,9.0,25,0.00,,,0.00,Wunderground v.1.15,2013-02-16 05:33:00,
2013-02-15 21:38:00,57.6,22.0,30.17,East,85,5.0,9.0,25,0.00,,,0.00,Wunderground v.1.15,2013-02-16 05:38:00,
2013-02-15 21:43:00,57.7,22.1,30.17,East,98,1.0,6.0,25,0.00,,,0.00,Wunderground v.1.15,2013-02-16 05:43:00,
2013-02-15 21:48:00,57.8,22.2,30.16,ENE,68,0.0,10.0,25,0.00,,,0.00,Wunderground v.1.15,2013-02-16 05:48:00,
2013-02-15 21:53:00,57.9,22.2,30.17,East,84,4.0,9.0,25,0.00,,,0.00,Wunderground v.1.15,2013-02-16 05:53:00,
2013-02-15 21:58:00,57.9,22.2,30.17,ENE,71,0.0,9.0,25,0.00,,,0.00,Wunderground v.1.15,2013-02-16 05:58:00,
2013-02-15 22:03:00,57.7,22.1,30.16,ESE,114,0.0,5.0,25,0.00,,,0.00,Wunderground v.1.15,2013-02-16 06:03:00,
2013-02-15 22:08:00,57.5,21.9,30.16,East,95,5.0,9.0,25,0.00,,,0.00,Wunderground v.1.15,2013-02-16 06:08:00,
2013-02-15 22:13:00,57.7,22.1,30.16,SE,126,4.0,10.0,25,0.00,,,0.00,Wunderground v.1.15,2013-02-16 06:13:00,
2013-02-15 22:18:00,57.7,22.1,30.15,ENE,66,5.0,10.0,25,0.00,,,0.00,Wunderground v.1.15,2013-02-16 06:18:00,
2013-02-15 22:23:00,57.8,22.2,30.16,ESE,104,0.0,10.0,25,0.00,,,0.00,Wunderground v.1.15,2013-02-16 06:23:00,
2013-02-15 22:28:00,57.8,22.2,30.15,ESE,118,0.0,10.0,25,0.00,,,0.00,Wunderground v.1.15,2013-02-16 06:28:00,
2013-02-15 22:33:00,58.0,22.3,30.15,East,98,0.0,10.0,25,0.00,,,0.00,Wunderground v.1.15,2013-02-16 06:33:00,
2013-02-15 22:38:00,57.8,22.2,30.15,SE,132,1.0,10.0,25,0.00,,,0.00,Wunderground v.1.15,2013-02-16 06:38:00,
2013-02-15 22:43:00,57.6,22.0,30.15,East,95,1.0,8.0,25,0.00,,,0.00,Wunderground v.1.15,2013-02-16 06:43:00,
2013-02-15 22:48:00,57.6,22.0,30.15,ESE,117,4.0,8.0,25,0.00,,,0.00,Wunderground v.1.15,2013-02-16 06:48:00,
2013-02-15 22:53:00,57.7,22.1,30.15,East,82,3.0,7.0,25,0.00,,,0.00,Wunderground v.1.15,2013-02-16 06:53:00,
2013-02-15 22:58:00,57.6,22.0,30.15,East,100,7.0,10.0,25,0.00,,,0.00,Wunderground v.1.15,2013-02-16 06:58:00,
2013-02-15 23:03:00,57.6,22.0,30.15,ENE,69,0.0,8.0,25,0.00,,,0.00,Wunderground v.1.15,2013-02-16 07:03:00,
2013-02-15 23:08:00,57.3,21.7,30.15,East,82,5.0,9.0,25,0.00,,,0.00,Wunderground v.1.15,2013-02-16 07:08:00,
2013-02-15 23:13:00,57.2,21.6,30.15,East,83,2.0,7.0,25,0.00,,,0.00,Wunderground v.1.15,2013-02-16 07:13:00,
2013-02-15 23:18:00,57.1,21.6,30.15,East,98,1.0,7.0,25,0.00,,,0.00,Wunderground v.1.15,2013-02-16 07:18:00,
2013-02-15 23:23:00,56.9,21.4,30.15,East,96,5.0,5.0,25,0.00,,,0.00,Wunderground v.1.15,2013-02-16 07:23:00,
2013-02-15 23:28:00,56.8,21.3,30.15,East,93,0.0,5.0,25,0.00,,,0.00,Wunderground v.1.15,2013-02-16 07:28:00,
2013-02-15 23:33:00,56.7,21.2,30.15,ENE,61,1.0,5.0,25,0.00,,,0.00,Wunderground v.1.15,2013-02-16 07:33:00,
2013-02-15 23:38:00,56.7,21.2,30.15,East,101,4.0,11.0,25,0.00,,,0.00,Wunderground v.1.15,2013-02-16 07:38:00,
2013-02-15 23:43:00,56.8,21.3,30.15,East,87,0.0,5.0,25,0.00,,,0.00,Wunderground v.1.15,2013-02-16 07:43:00,
2013-02-15 23:48:00,56.7,21.2,30.15,East,80,1.0,7.0,25,0.00,,,0.00,Wunderground v.1.15,2013-02-16 07:48:00,
2013-02-15 23:53:00,56.6,21.1,30.14,East,90,3.0,5.0,25,0.00,,,0.00,Wunderground v.1.15,2013-02-16 07:53:00,
2013-02-15 23:58:00,56.6,21.1,30.15,East,100,3.0,8.0,25,0.00,,,0.00,Wunderground v.1.15,2013-02-16 07:58:00,